Location: Ohmer (historical)
(38.0096°N, 122.0227°W)
Time: 01:46:09
(UTC+00:00)

Cosmos 2173 Rocket - Pass Details

Date: 14 February 2026
Orbit: 943 x 1000 km, 83.0° (Epoch: 10 March)

Event Time Altitude Azimuth Distance (km) Brightness Sun altitude
Rises 14:17:35 0° 189° (S) 3,698 7.0 -8.8°
Reaches altitude 10° 14:20:06 10° 191° (S) 2,756 6.4 -8.3°
Maximum altitude 14:26:27 77° 277° (W) 1,027 4.0 -7.1°
Drops below altitude 10° 14:32:50 10° 4° (N) 2,773 6.3 -5.8°
Sets 14:35:23 0° 6° (N) 3,722 7.0 -5.4°
